Regional Weather Roundup
Issued by NWS

Home | Current Version | Previous Version | Text Only | Print | Product List | Glossary On
Versions: 1 2 3 4 5 6 7 8 9 10 11 12 13 14 15 16 17 18 19 20 21 22 23 24 25 26 27 28
000
ASUS45 KCYS 300510
RWRWY

WYOMING REGIONAL WEATHER ROUNDUP
NATIONAL WEATHER SERVICE CHEYENNE WY
1100 PM MDT SUN MAY 29 2016

NOTE:  "FAIR" INDICATES FEW OR NO CLOUDS BELOW 12,000 FEET
WITH NO SIGNIFICANT WEATHER AND/OR OBSTRUCTIONS TO VISIBILITY.

WYZ001-300600-
YELLOWSTONE NATIONAL PARK

CITY           SKY/WX    TMP DP  RH WIND       PRES   REMARKS
LK YELLOWSTONE   N/A     43  37  79 VRB6      30.22R
W YELLOWSTONE  NOT AVBL

$$
WYZ002>013-054>058-071-098>099-300600-
NORTHERN WYOMING

CITY           SKY/WX    TMP DP  RH WIND       PRES   REMARKS
JACKSON        FAIR      50  39  66 SW12      30.13S
CODY           FAIR      61  37  41 SW3       29.98F
GREYBULL       FAIR      65  35  33 E7        29.91S
WORLAND        FAIR      63  38  39 SW9       29.93S
SHERIDAN       FAIR      55  48  77 CALM      29.94F
BUFFALO        FAIR      59  41  51 W9        30.01S
GILLETTE       FAIR      49  43  80 S6        29.98S
HULETT         FAIR      59  46  63 E8        30.00F
NEWCASTLE      FAIR      63  41  45 SE6       30.02S

$$
WYZ014>020-022>026-101>103-300600-
CENTRAL WYOMING

CITY           SKY/WX    TMP DP  RH WIND       PRES   REMARKS
BIG PINEY      MOCLDY    47  40  76 N9        30.21S
PINEDALE       FAIR      45  41  87 NW3       30.21F
DUBOIS         FAIR      50  30  46 N6        30.13R
LANDER         FAIR      54  39  57 SW12      30.08F
RIVERTON       LGT RAIN  56  43  61 W15       30.07F
CASPER         CLOUDY    56  39  53 SW5       30.04R
DOUGLAS          N/A    N/A N/A N/A MISG      30.03S

$$
WYZ021-027>030-104>119-300600-
SOUTHERN WYOMING

CITY           SKY/WX    TMP DP  RH WIND       PRES   REMARKS
EVANSTON       CLOUDY    50  40  68 N13       30.23R
KEMMERER       RAIN      45  39  81 N12       30.25R
FORT BRIDGER   CLOUDY    54  39  58 W20       30.22R
ROCK SPRINGS   FAIR      52  37  56 NW7       30.16R
DIXON          FAIR      48  40  76 NE5       30.20F
RAWLINS        FAIR      49  33  54 S6        30.15F
SARATOGA       FAIR      46  36  66 SE9G16    30.19F
LARAMIE        FAIR      45  39  79 SW12      30.18F
CHEYENNE       FAIR      51  42  71 SW9       30.13S
TORRINGTON     FAIR      58  47  66 E3        30.00S
PINE BLUFFS    FAIR      52  45  76 N5        30.09S

$$




USA.gov is the U.S. government's official web portal to all federal, state and local government web resources and services.